Volver al catálogo

SL-14 DEB

ActivoPO
NORAD 47092·DEBRIS·🇷🇺 Russia

Lanzado Aug 15, 1991 desde Plesetsk Cosmodrome

Loading…

Próximos Pases (próximas 24 horas)

TLE

ActualizadoSource: Space-Track

Época: Sep 13, 2026, 18:05 UTC

1 47092U 91056DS  26256.75369928  .00001020  00000-0  17537-2 0  9991
2 47092  82.5688  14.5844 0084481 324.3275  35.2234 13.42171115286212

Sigue SL-14 DEB en tiempo real con AllMySat

Download on the App Store